Back to catalog

SHIYAN 20A

SY-20A

AliveScienceLEO
NORAD 54699·PAYLOAD·🇨🇳 China

Launched Dec 12, 2022 from Jiuquan Satellite Launch Center

Loading…

Next Passes (next 24 hours)

TLE

FreshSource: Space-Track

Epoch: Sep 14, 2026, 14:49 UTC

1 54699U 22169A   26257.61736280 -.00000026  00000-0  42987-4 0  9991
2 54699  59.9965 304.8788 0006134 358.3044   1.7970 14.29577717196142

Track SHIYAN 20A in real time with AllMySat

Download on the App Store